Tracking 29892 objects as of 21-Nov-2024
HD Live streaming from Space Station
objects crossing your sky now

STARLINK-3709

Track STARLINK-3709 now!
10-day predictions
STARLINK-3709 is classified as:


NORAD ID: 52102
Int'l Code: 2022-029Q
Perigee: 545.9 km
Apogee: 547.9 km
Inclination: 53.2 °
Period: 95.4 minutes
Semi major axis: 6917 km
RCS: Unknown
Launch date: March 19, 2022
Source: United States (US)
Launch site: AIR FORCE EASTERN TEST RANGE (AFETR)
Your satellite tracking list
Your tracking list is empty




NASA's NSSDC Master Catalog

Two Line Element Set (TLE):
1 52102U 22029Q   24325.25273143  .00001255  00000-0  96944-4 0  9997
2 52102  53.2162  48.9536 0001487  56.0873 304.0261 15.08834063149160
Source of the keplerian elements: AFSPC